DW1375 Weather Reports


Display with metric or nautical units.
time (UTC)temp
F
wind
direction
speed
MPH
gust
MPH
rain 1hr
in
rain 24hr
in
rain mn
in
humidity
%
barometer
mb
20260504081522 45 3 0.0 1.0 0.00 0.00 0.00 90 1018.1
20260504050000 49 3 1.0 2.0 0.00 0.00 0.00 90 1019.5
20260504044502 50 3 0.0 1.0 0.00 0.00 0.00 90 1019.3
20260504043100 50 3 0.0 1.0 0.00 0.00 0.00 90 1019.6
20260504041559 51 3 0.0 0.0 0.00 0.00 0.00 90 1019.6
20260504040114 51 3 0.0 0.0 0.00 0.00 0.00 90 1019.7
20260504034632 52 3 0.0 0.0 0.00 0.00 0.00 89 1019.7
20260504033058 52 3 0.0 0.0 0.00 0.00 0.00 89 1019.8
20260504031558 52 3 0.0 0.0 0.00 0.00 0.00 88 1019.8
20260504030121 53 3 0.0 0.0 0.00 0.00 0.00 88 1019.8
20260504024601 53 3 0.0 0.0 0.00 0.00 0.00 88 1019.7
20260504023056 54 3 0.0 0.0 0.00 0.00 0.00 87 1019.6
20260504021557 55 3 0.0 0.0 0.00 0.00 0.00 86 1019.5
20260504020107 56 3 0.0 0.0 0.00 0.00 0.00 85 1019.3
20260504014604 56 3 0.0 0.0 0.00 0.00 0.00 84 1019.4
20260504013057 57 3 0.0 0.0 0.00 0.00 0.00 82 1019.0
20260504011554 59 3 0.0 0.0 0.00 0.00 0.00 78 1018.9
20260504010054 60 3 0.0 0.0 0.00 0.00 0.00 76 1018.8
20260504004553 62 3 0.0 1.0 0.00 0.00 0.00 72 1018.7
20260504003054 63 3 0.0 1.0 0.00 0.00 0.00 70 1018.6
20260504001603 65 3 0.0 0.0 0.00 0.00 0.00 61 1018.7
20260504000152 68 3 0.0 1.0 0.00 0.00 0.00 54 1018.7
20260503234549 70 3 0.0 2.0 0.00 0.00 0.00 47 1018.8
20260503233048 71 324 0.0 4.0 0.00 0.00 0.00 46 1018.8
20260503231552 72 249 0.0 3.0 0.00 0.00 0.00 44 1018.6
20260503230047 73 308 0.0 4.0 0.00 0.00 0.00 41 1018.5
20260503224534 73 272 0.0 3.0 0.00 0.00 0.00 39 1018.6
20260503223032 73 297 3.0 8.0 0.00 0.00 0.00 38 1018.6
20260503221531 73 239 0.0 4.0 0.00 0.00 0.00 38 1018.7
20260503220030 73 64 1.0 5.0 0.00 0.00 0.00 37 1018.9
20260503214529 73 351 3.0 8.0 0.00 0.00 0.00 37 1019.0
20260503213034 73 194 1.0 6.0 0.00 0.00 0.00 38 1019.2
20260503211532 73 83 1.0 6.0 0.00 0.00 0.00 36 1019.5
20260503210024 73 358 1.0 6.0 0.00 0.00 0.00 36 1019.6
20260503204522 72 58 3.0 9.0 0.00 0.00 0.00 37 1019.8
20260503203020 73 62 3.0 8.0 0.00 0.00 0.00 38 1020.1
20260503201520 72 309 6.0 10.0 0.00 0.00 0.00 37 1020.3
20260503200019 73 70 1.0 9.0 0.00 0.00 0.00 39 1020.8
20260503194519 72 8 1.0 9.0 0.00 0.00 0.00 39 1021.1
20260503193017 72 358 4.0 8.0 0.00 0.00 0.00 37 1021.3
20260503191516 72 295 5.0 11.0 0.00 0.00 0.00 38 1021.5
20260503190036 73 329 2.0 9.0 0.00 0.00 0.00 40 1021.7